Regional Weather Roundup
Issued by NWS Memphis, TN

Home | Current Version | Previous Version | Text Only | Print | Product List | Glossary On
Versions: 1 2 3 4 5 6 7 8 9 10 11 12 13 14 15 16 17 18 19 20 21 22 23 24 25 26 27 28 29 30 31 32 33 34 35 36 37 38 39 40 41 42 43 44 45 46 47 48 49 50
000
ASUS44 KMEG 212010
RWRMEG
MEMPHIS CWA HOURLY WEATHER ROUNDUP
NATIONAL WEATHER SERVICE MEMPHIS TN
300 PM CDT SUN SEP 21 2014

...WEST TENNESSEE...

CITY           SKY/WX    TMP DP  RH WIND       PRES   REMARKS
MEMPHIS INTL   PTSUNNY   88  69  53 N14       29.97F HX  92
NWS MEMPHIS      N/A     88 N/A N/A MISG        N/A
JACKSON        PTSUNNY   86  69  56 W10       29.97F HX  90
LEXINGTON      PTSUNNY   84  70  61 NW12      29.95F
SAVANNAH       PTSUNNY   86  70  58 W9        29.95F HX  90
DYERSBURG      MOSUNNY   82  61  47 NW7       29.98F
UNION CITY     SUNNY     81  61  50 NW13      29.97S
PARIS          MOSUNNY   82  64  54 NW8       29.97F
HUNTINGDON     MOSUNNY   82  66  58 W10       29.96F


...EASTERN ARKANSAS...

CITY           SKY/WX    TMP DP  RH WIND       PRES   REMARKS
JONESBORO      MOSUNNY   86  67  52 MISG      29.98F
WEST MEMPHIS   PTSUNNY   89  71  55 NW10      29.96F HX  95
BATESVILLE     MOSUNNY   88  66  48 W8        30.01F HX  90
NEWPORT        PTSUNNY   89  69  51 N10G16    30.00F HX  93
WALNUT RIDGE   SUNNY     84  63  48 NW13      29.99F
BLYTHEVILLE    MOSUNNY   88  71  57 NW6G20    29.97F HX  94
SEARCY         PTSUNNY   85  70  60 W7        30.02S
STUTTGART      CLOUDY    88  70  55 W10       30.00S HX  92
PINE BLUFF     PTSUNNY   87  67  51 NW14      30.00F HX  90
MONTICELLO     MOSUNNY   92  64  39 W7        29.99F HX  93


...NORTH MISSISSIPPI...

CITY           SKY/WX    TMP DP  RH WIND       PRES   REMARKS
TUPELO         MOSUNNY   89  67  47 W9        29.97F HX  92
OXFORD         SUNNY     86  66  51 W3        29.99F
OLIVE BRANCH   PTSUNNY   88  72  58 W6        29.97F HX  94
TUNICA         MOSUNNY   90  68  48 W13       29.97F HX  93
CLARKSDALE     MOSUNNY   91  68  46 CALM      29.97F HX  95
CORINTH        PTSUNNY   86  68  54 W10       29.95F
GRENADA        MOSUNNY   90  64  43 W7        29.98F HX  91
GREENWOOD      PTSUNNY   92  66  42 VRB5      29.97F HX  94
COLUMBUS       SUNNY     89  64  43 NW8       29.97F HX  90
STARKVILLE     MOCLDY    90  63  40 CALM      29.97F HX  90
GOLDEN TRIANGL PTSUNNY   93  64  38 N9        29.98F HX  95


...SOUTHEAST MISSOURI...

CITY           SKY/WX    TMP DP  RH WIND       PRES   REMARKS
WEST PLAINS    SUNNY     80  44  27 NW9       30.08F
POPLAR BLUFF   SUNNY     83  47  28 NW12      30.00S
CAPE GIRARDEAU SUNNY     81  49  32 N12G20    29.99F


...NORTHWEST ALABAMA...

CITY           SKY/WX    TMP DP  RH WIND       PRES   REMARKS
MUSCLE SHOALS  MOSUNNY   85  67  54 NW7       29.97F


...MIDDLE TENNESSEE...

CITY           SKY/WX    TMP DP  RH WIND       PRES   REMARKS
NASHVILLE      PTSUNNY   87  67  51 W8G21     29.92F HX  90
CLARKSVILLE    MOSUNNY   82  64  54 NW12      29.94S
DICKSON        SUNNY     82  64  54 W12       29.94F
COLUMBIA       PTSUNNY   84  72  65 VRB3      29.93F
LEWISBURG      PTSUNNY   87  69  54 W8        29.94F HX  91


...WESTERN KENTUCKY...

CITY           SKY/WX    TMP DP  RH WIND       PRES   REMARKS
PADUCAH        SUNNY     83  50  31 NW8G17    29.97F
FORT CAMPBELL  SUNNY     83  63  50 W13G24    29.94F


...CENTRAL ARKANSAS...

CITY           SKY/WX    TMP DP  RH WIND       PRES   REMARKS
LITTLE ROCK    CLOUDY    86  67  52 NW10G21   30.02S


SKY/WX REPORTED AS FAIR MEANS FEW OR NO CLOUDS BELOW
12 THOUSAND FEET.




USA.gov is the U.S. government's official web portal to all federal, state and local government web resources and services.